| time (UTC) | temp F | wind direction | speed knots | gust knots | rain 1hr in | rain 24hr in | rain mn in | humidity % | barometer mb |
| 20260503201530 | 85 | 59 | 3.5 | 9.6 | 0.00 | 0.00 | 0.00 | 28 | 1015.5 |
| 20260503200033 | 85 | 107 | 3.5 | 8.7 | 0.00 | 0.00 | 0.00 | 29 | 1015.6 |
| 20260503194529 | 83 | 114 | 2.6 | 7.0 | 0.00 | 0.00 | 0.00 | 31 | 1015.8 |
| 20260503191531 | 80 | 71 | 2.6 | 9.6 | 0.00 | 0.00 | 0.00 | 34 | 1016.1 |
| 20260503190030 | 79 | 68 | 3.5 | 7.8 | 0.00 | 0.00 | 0.00 | 34 | 1016.2 |
| 20260503183029 | 77 | 71 | 3.5 | 7.0 | 0.00 | 0.00 | 0.00 | 36 | 1016.4 |
| 20260503181529 | 76 | 33 | 3.5 | 8.7 | 0.00 | 0.00 | 0.00 | 38 | 1016.5 |
| 20260503174530 | 74 | 11 | 3.5 | 6.1 | 0.00 | 0.00 | 0.00 | 39 | 1016.6 |
| 20260503173032 | 73 | 35 | 2.6 | 6.1 | 0.00 | 0.00 | 0.00 | 40 | 1016.8 |
| 20260503171531 | 73 | 36 | 2.6 | 7.0 | 0.00 | 0.00 | 0.00 | 40 | 1016.8 |
| 20260503081526 | 60 | 287 | 3.5 | 4.3 | 0.00 | 0.00 | 0.00 | 59 | 1016.6 |
| 20260503054605 | 63 | 321 | 2.6 | 3.5 | 0.00 | 0.00 | 0.00 | 53 | 1016.5 |
| 20260503053105 | 64 | 298 | 2.6 | 3.5 | 0.00 | 0.00 | 0.00 | 50 | 1016.5 |
| 20260503051530 | 65 | 288 | 3.5 | 7.0 | 0.00 | 0.00 | 0.00 | 49 | 1016.5 |
| 20260503050029 | 67 | 257 | 3.5 | 6.1 | 0.00 | 0.00 | 0.00 | 47 | 1016.4 |
| 20260503040037 | 67 | 247 | 4.3 | 8.7 | 0.00 | 0.00 | 0.00 | 48 | 1015.9 |
| 20260503033030 | 67 | 261 | 2.6 | 5.2 | 0.00 | 0.00 | 0.00 | 48 | 1015.4 |
| 20260503031526 | 69 | 322 | 2.6 | 6.1 | 0.00 | 0.00 | 0.00 | 46 | 1015.1 |
| 20260503030031 | 70 | 272 | 5.2 | 7.0 | 0.00 | 0.00 | 0.00 | 44 | 1014.8 |
| 20260503023029 | 72 | 261 | 4.3 | 7.0 | 0.00 | 0.00 | 0.00 | 41 | 1014.7 |
| 20260503021533 | 73 | 258 | 4.3 | 6.1 | 0.00 | 0.00 | 0.00 | 39 | 1014.6 |
| 20260503020030 | 74 | 249 | 3.5 | 6.1 | 0.00 | 0.00 | 0.00 | 39 | 1014.6 |
| 20260503014530 | 75 | 241 | 3.5 | 4.3 | 0.00 | 0.00 | 0.00 | 38 | 1014.6 |
| 20260503013030 | 75 | 235 | 1.7 | 4.3 | 0.00 | 0.00 | 0.00 | 38 | 1014.6 |
| 20260503011530 | 76 | 227 | 1.7 | 4.3 | 0.00 | 0.00 | 0.00 | 38 | 1014.6 |
| 20260503010108 | 77 | 211 | 1.7 | 2.6 | 0.00 | 0.00 | 0.00 | 36 | 1014.7 |
| 20260503004606 | 78 | 199 | 1.7 | 5.2 | 0.00 | 0.00 | 0.00 | 35 | 1014.7 |
| 20260503003030 | 79 | 185 | 1.7 | 5.2 | 0.00 | 0.00 | 0.00 | 33 | 1014.6 |
| 20260503001531 | 80 | 156 | 1.7 | 5.2 | 0.00 | 0.00 | 0.00 | 33 | 1014.7 |
| 20260502234532 | 81 | 135 | 1.7 | 5.2 | 0.00 | 0.00 | 0.00 | 33 | 1014.9 |
| 20260502233033 | 81 | 137 | 1.7 | 5.2 | 0.00 | 0.00 | 0.00 | 32 | 1015.2 |
| 20260502231531 | 81 | 109 | 1.7 | 6.1 | 0.00 | 0.00 | 0.00 | 33 | 1015.4 |
| 20260502230031 | 80 | 120 | 1.7 | 5.2 | 0.00 | 0.00 | 0.00 | 33 | 1015.5 |
| 20260502224532 | 80 | 134 | 0.9 | 5.2 | 0.00 | 0.00 | 0.00 | 33 | 1015.6 |
| 20260502223104 | 81 | 99 | 1.7 | 7.0 | 0.00 | 0.00 | 0.00 | 33 | 1015.9 |
| 20260502221530 | 79 | 125 | 1.7 | 7.0 | 0.00 | 0.00 | 0.00 | 36 | 1016.0 |
| 20260502220031 | 79 | 31 | 2.6 | 7.0 | 0.00 | 0.00 | 0.00 | 38 | 1016.2 |
| 20260502214530 | 80 | 30 | 2.6 | 6.1 | 0.00 | 0.00 | 0.00 | 38 | 1016.3 |
| 20260502213031 | 78 | 71 | 1.7 | 6.1 | 0.00 | 0.00 | 0.00 | 39 | 1016.5 |
| 20260502210029 | 73 | 33 | 2.6 | 5.2 | 0.00 | 0.00 | 0.00 | 45 | 1016.7 |
| 20260502204528 | 72 | 26 | 3.5 | 6.1 | 0.00 | 0.00 | 0.00 | 51 | 1016.6 |